EN

Hourly Weather Osipovo

Today, 18 May, Tuesday

Time Temperature Precipitation Wind Pressure Humidity
00:00 +14°C° 3.7 mm 3 mps 746 mmHg 94%
01:00 +14°C° 3.7 mm 4 mps 745 mmHg 94%
02:00 +14°C° 3.7 mm 4 mps 744 mmHg 93%
03:00 +14°C° 0.8 mm 4 mps 744 mmHg 93%
04:00 +14°C° 0.8 mm 4 mps 744 mmHg 93%
05:00 +13°C° 0.8 mm 5 mps 745 mmHg 92%
06:00 +13°C° 0.1 mm 4 mps 745 mmHg 92%
07:00 +13°C° 0.1 mm 4 mps 746 mmHg 92%
08:00 +13°C° 0.1 mm 4 mps 747 mmHg 91%
09:00 +12°C° 0.1 mm 3 mps 748 mmHg 91%
10:00 +11°C° 0.1 mm 3 mps 748 mmHg 91%
11:00 +10°C° 0.1 mm 3 mps 749 mmHg 91%
12:00 +10°C° 0 mm 3 mps 750 mmHg 89%
13:00 +10°C° 0 mm 3 mps 750 mmHg 88%
14:00 +10°C° 0 mm 3 mps 751 mmHg 87%
15:00 +10°C° 0 mm 3 mps 751 mmHg 87%
16:00 +10°C° 0 mm 2 mps 751 mmHg 87%
17:00 +9°C° 0 mm 2 mps 751 mmHg 87%
18:00 +9°C° 0 mm 2 mps 752 mmHg 88%
19:00 +9°C° 0 mm 2 mps 752 mmHg 88%
20:00 +9°C° 0 mm 2 mps 752 mmHg 89%
21:00 +8°C° 0 mm 2 mps 753 mmHg 86%
22:00 +8°C° 0 mm 2 mps 753 mmHg 84%
23:00 +8°C° 0 mm 3 mps 753 mmHg 81%

Tomorrow, 19 May, Wednesday

Time Temperature Precipitation Wind Pressure Humidity
00:00 +7°C° 0 mm 3 mps 753 mmHg 78%
01:00 +4°C° 0 mm 3 mps 754 mmHg 74%
02:00 +3°C° 0 mm 3 mps 754 mmHg 71%
03:00 +3°C° 0 mm 3 mps 754 mmHg 67%
04:00 +3°C° 0 mm 3 mps 755 mmHg 64%
05:00 +3°C° 0 mm 3 mps 755 mmHg 61%
06:00 +5°C° 0 mm 4 mps 755 mmHg 53%
07:00 +6°C° 0 mm 4 mps 755 mmHg 45%
08:00 +7°C° 0 mm 5 mps 755 mmHg 36%
09:00 +8°C° 0 mm 5 mps 756 mmHg 35%
10:00 +9°C° 0 mm 5 mps 756 mmHg 34%
11:00 +9°C° 0 mm 5 mps 756 mmHg 32%
12:00 +9°C° 0 mm 5 mps 756 mmHg 31%
13:00 +10°C° 0 mm 5 mps 756 mmHg 29%
14:00 +10°C° 0 mm 5 mps 756 mmHg 28%
15:00 +10°C° 0 mm 5 mps 756 mmHg 30%
16:00 +9°C° 0 mm 5 mps 756 mmHg 32%
17:00 +9°C° 0 mm 5 mps 756 mmHg 34%
18:00 +7°C° 0 mm 4 mps 756 mmHg 37%
19:00 +6°C° 0 mm 4 mps 756 mmHg 40%
20:00 +4°C° 0 mm 4 mps 757 mmHg 43%
21:00 +3°C° 0 mm 3 mps 757 mmHg 47%
22:00 +2°C° 0 mm 3 mps 757 mmHg 52%
23:00 +2°C° 0 mm 2 mps 757 mmHg 56%

Day after tomorrow, 20 May, Thursday

Time Temperature Precipitation Wind Pressure Humidity
00:00 +1°C° 0 mm 2 mps 758 mmHg 60%
01:00 -1°C° 0 mm 2 mps 758 mmHg 63%
02:00 -2°C° 0 mm 2 mps 758 mmHg 66%
03:00 -1°C° 0 mm 2 mps 758 mmHg 63%
04:00 -1°C° 0 mm 3 mps 758 mmHg 60%
05:00 0°C° 0 mm 3 mps 759 mmHg 58%
06:00 +1°C° 0 mm 3 mps 759 mmHg 50%
07:00 +3°C° 0 mm 3 mps 759 mmHg 42%
08:00 +4°C° 0 mm 3 mps 759 mmHg 34%
09:00 +5°C° 0 mm 3 mps 759 mmHg 32%
10:00 +8°C° 0 mm 3 mps 758 mmHg 31%
11:00 +9°C° 0 mm 2 mps 758 mmHg 30%
12:00 +9°C° 0 mm 2 mps 758 mmHg 29%
13:00 +10°C° 0 mm 2 mps 758 mmHg 29%
14:00 +10°C° 0 mm 2 mps 757 mmHg 29%
15:00 +10°C° 0 mm 2 mps 757 mmHg 31%
16:00 +10°C° 0 mm 2 mps 757 mmHg 32%
17:00 +10°C° 0 mm 2 mps 757 mmHg 33%
18:00 +9°C° 0 mm 1 mps 757 mmHg 39%
19:00 +7°C° 0 mm 1 mps 757 mmHg 46%
20:00 +6°C° 0 mm 1 mps 758 mmHg 52%
21:00 +5°C° 0 mm 1 mps 757 mmHg 54%
22:00 +4°C° 0 mm 1 mps 757 mmHg 56%
23:00 +4°C° 0 mm 1 mps 757 mmHg 58%

21 May, Friday

Time Temperature Precipitation Wind Pressure Humidity
00:00 +3°C° 0 mm 1 mps 757 mmHg 60%
01:00 +3°C° 0 mm 1 mps 757 mmHg 62%
02:00 +3°C° 0 mm 1 mps 757 mmHg 64%
03:00 +2°C° 0 mm 2 mps 757 mmHg 63%
04:00 +3°C° 0 mm 2 mps 758 mmHg 62%
05:00 +4°C° 0 mm 2 mps 758 mmHg 60%
06:00 +5°C° 0 mm 2 mps 758 mmHg 62%
07:00 +6°C° 0 mm 2 mps 757 mmHg 63%
08:00 +7°C° 0 mm 3 mps 757 mmHg 64%
09:00 +5°C° 0.5 mm 3 mps 757 mmHg 74%
10:00 +5°C° 0.5 mm 3 mps 758 mmHg 83%
11:00 +5°C° 0.5 mm 2 mps 758 mmHg 93%
12:00 +4°C° 0.5 mm 3 mps 757 mmHg 94%
13:00 +4°C° 0.5 mm 3 mps 757 mmHg 94%
14:00 +5°C° 0.5 mm 3 mps 757 mmHg 95%
15:00 +5°C° 1.9 mm 3 mps 757 mmHg 96%
16:00 +6°C° 1.9 mm 2 mps 756 mmHg 97%
17:00 +6°C° 1.9 mm 2 mps 756 mmHg 98%
18:00 +6°C° 0.5 mm 2 mps 756 mmHg 98%
19:00 +6°C° 0.5 mm 2 mps 756 mmHg 98%
20:00 +6°C° 0.5 mm 2 mps 756 mmHg 98%
21:00 +6°C° 0 mm 2 mps 755 mmHg 98%
22:00 +6°C° 0 mm 2 mps 755 mmHg 98%
23:00 +6°C° 0 mm 2 mps 755 mmHg 98%

22 May, Saturday

Time Temperature Precipitation Wind Pressure Humidity
00:00 +7°C° 0 mm 1 mps 755 mmHg 99%
01:00 +7°C° 0 mm 1 mps 755 mmHg 99%
02:00 +7°C° 0 mm 1 mps 755 mmHg 99%
03:00 +8°C° 0 mm 1 mps 755 mmHg 99%
04:00 +8°C° 0 mm 0 mps 755 mmHg 98%
05:00 +8°C° 0 mm 0 mps 755 mmHg 98%
06:00 +9°C° 0 mm 0 mps 755 mmHg 97%
07:00 +10°C° 0 mm 0 mps 755 mmHg 95%
08:00 +11°C° 0 mm 0 mps 756 mmHg 94%
09:00 +13°C° 0 mm 0 mps 756 mmHg 88%
10:00 +15°C° 0 mm 0 mps 756 mmHg 82%
11:00 +17°C° 0 mm 0 mps 756 mmHg 75%
12:00 +19°C° 0 mm 0 mps 756 mmHg 69%
13:00 +20°C° 0 mm 0 mps 756 mmHg 63%
14:00 +22°C° 0 mm 0 mps 756 mmHg 57%
15:00 +22°C° 0 mm 0 mps 756 mmHg 57%
16:00 +24°C° 0 mm 1 mps 756 mmHg 57%
17:00 +24°C° 0 mm 1 mps 756 mmHg 58%
18:00 +21°C° 0 mm 1 mps 756 mmHg 67%
19:00 +18°C° 0 mm 2 mps 756 mmHg 77%
20:00 +16°C° 0 mm 2 mps 756 mmHg 87%
21:00 +15°C° 0 mm 2 mps 756 mmHg 89%
22:00 +15°C° 0 mm 2 mps 756 mmHg 91%
23:00 +14°C° 0 mm 2 mps 756 mmHg 94%

23 May, Sunday

Time Temperature Precipitation Wind Pressure Humidity
00:00 +14°C° 0 mm 2 mps 756 mmHg 95%
01:00 +13°C° 0 mm 2 mps 756 mmHg 96%
02:00 +13°C° 0 mm 2 mps 756 mmHg 96%
03:00 +14°C° 0 mm 2 mps 756 mmHg 95%
04:00 +14°C° 0 mm 2 mps 756 mmHg 93%
05:00 +15°C° 0 mm 2 mps 756 mmHg 91%
06:00 +17°C° 0 mm 2 mps 756 mmHg 82%
07:00 +20°C° 0 mm 2 mps 756 mmHg 73%
08:00 +23°C° 0 mm 2 mps 756 mmHg 65%
09:00 +25°C° 0 mm 2 mps 755 mmHg 56%
10:00 +27°C° 0 mm 3 mps 755 mmHg 48%
11:00 +29°C° 0 mm 3 mps 755 mmHg 40%
12:00 +29°C° 0 mm 4 mps 754 mmHg 36%
13:00 +30°C° 0 mm 4 mps 754 mmHg 33%
14:00 +30°C° 0 mm 4 mps 754 mmHg 30%
15:00 +29°C° 0 mm 4 mps 753 mmHg 35%
16:00 +28°C° 0 mm 3 mps 753 mmHg 41%
17:00 +27°C° 0 mm 3 mps 753 mmHg 47%
18:00 +25°C° 0 mm 3 mps 752 mmHg 53%
19:00 +24°C° 0 mm 3 mps 752 mmHg 59%
20:00 +21°C° 0 mm 3 mps 752 mmHg 66%
21:00 +20°C° 0.2 mm 2 mps 752 mmHg 73%
22:00 +19°C° 0.2 mm 2 mps 752 mmHg 80%
23:00 +18°C° 0.2 mm 2 mps 751 mmHg 88%
Show more

We Need Your Consent

Meteoprog and our Service Providers may store and access personal data such as cookies, device identifiers or other similar technologies on your device and process such data to personalise content and ads, as well as provide social media features and to analyse the traffic.

  • Store and/or access information on your device

    Cookies, device identifiers or other information can be stored or accessed on your device for the purposes indicated above.

  • Personalised ads and content, ad and content measurement, audience insights, and products development

    Ads and content can be personalised based on a profile. More data can be added to better personalise ads and content. Ad and content performance can be measured. Insights about the audience who saw the ads and content can be derived. Such data can be used to develop or improve user’s experience, systems and software.

By clicking ‘I Agree’ you will allow the use of indicated cookies, device identifiers, web beacons or other similar technologies. Your settings can be changed in the browser on your device.

For certain purposes, legitimate interests may be relied on, rather than consent. You can read more about this in our Privacy and Cookie Policy.